Dewpoint
-9 -10 -9 -10 -10 -8 -8 -9 -8 -10 -10 -9 -8 -8 -7 -7 -8 -8 -8 -7 -7 -6 -6 -5 -5 -5 -4
-9 -9 -10 -9 -7 -8 -11 -12 -11 -11 -10 -9 -10 -10 -10 -9 -9 -8 -6 -5 -6 -6 -6 -5 -4 -3 -3
-9 -9 -10 -7 -8 -12 -12 -12 -14 -13 -10 -10 -9 -9 -8 -7 -6 -7 -8 -8 -8 -7 -7 -7 -6 -6 -5
-7 -9 -7 -9 -10 -11 -12 -12 -12 -10 -9 -9 -9 -9 -8 -9 -9 -9 -8 -8 -8 -7 -7 -6 -5 -5 -4
-9 -8 -8 -11 -11 -11 -10 -11 -10 -9 -11 -12 -10 -10 -11 -11 -10 -9 -8 -7 -7 -6 -6 -6 -5 -4 -4
-8 -10 -10 -10 -11 -10 -9 -9 -11 -12 -11 -10 -10 -11 -11 -11 -10 -9 -9 -8 -7 -8 -7 -6 -5 -5 -5
-11 -11 -10 -10 -9 -10 -10 -10 -10 -11 -11 -10 -11 -10 -12 -12 -10 -9 -9 -8 -8 -7 -7 -6 -6 -5 -5
-10 -10 -10 -10 -11 -10 -11 -10 -11 -12 -11 -11 -11 -12 -12 -12 -12 -12 -9 -8 -8 -7 -7 -6 -6 -5 -5
-10 -11 -12 -11 -11 -11 -11 -11 -11 -12 -13 -11 -12 -11 -11 -11 -13 -12 -9 -8 -8 -8 -7 -7 -7 -6 -6
-13 -15 -14 -13 -11 -11 -12 -12 -11 -11 -13 -11 -11 -10 -10 -11 -11 -11 -11 -11 -8 -8 -8 -7 -7 -7 -7
-14 -13 -12 -12 -12 -11 -11 -11 -12 -11 -12 -10 -10 -10 -10 -10 -10 -11 -12 -12 -10 -7 -6 -6 -6 -7 -7
-12 -12 -12 -12 -11 -11 -11 -11 -11 -11 -10 -10 -10 -10 -10 -10 -10 -12 -12 -10 -8 -6 -6 -5 -5 -6 -6
-12 -12 -11 -11 -11 -11 -12 -11 -11 -11 -10 -10 -10 -10 -10 -11 -10 -11 -10 -8 -6 -6 -5 -4 -4 -3 -3
-12 -12 -11 -11 -11 -11 -11 -11 -11 -11 -11 -10 -10 -10 -10 -9 -10 -10 -8 -9 -6 -5 -4 -4 -3 -2 -2
-12 -11 -11 -11 -11 -11 -11 -11 -10 -10 -10 -10 -10 -9 -9 -9 -8 -8 -7 -6 -5 -4 -4 -4 -3 -2 -1
-11 -11 -11 -10 -10 -10 -10 -10 -10 -10 -10 -10 -9 -9 -8 -8 -8 -7 -6 -5 -5 -4 -5 -5 -4 -2 -1
-11 -10 -10 -10 -10 -10 -10 -10 -10 -10 -9 -9 -9 -9 -9 -9 -7 -6 -5 -4 -4 -4 -4 -4 -5 -5 -3
Wind_Speed
43 44 42 43 45 40 37 37 33 43 44 46 42 41 41 42 44 44 42 41 42 41 41 41 41 43 44
44 46 46 44 36 39 45 46 41 41 38 36 39 40 42 41 40 38 37 36 37 37 37 37 37 36 38
43 44 49 38 37 46 44 44 43 38 35 35 35 34 34 35 32 36 38 36 37 37 38 38 39 38 39
38 42 34 42 40 41 46 42 46 41 37 33 36 37 36 40 40 38 36 35 35 34 34 35 36 37 39
43 37 32 42 38 41 42 45 42 29 46 45 34 41 45 40 38 35 33 33 33 34 35 36 35 34 34
32 41 40 39 42 42 41 30 51 42 33 47 40 44 42 41 38 35 36 37 38 38 38 38 38 36 36
36 37 39 41 39 41 44 41 41 46 44 43 41 41 43 42 36 35 35 35 36 38 38 38 39 39 40
33 36 38 40 42 39 40 42 40 41 36 38 41 43 41 41 38 35 33 33 34 33 34 33 33 36 36
30 34 37 32 31 33 37 37 38 38 36 37 41 43 43 44 37 24 26 31 34 36 37 37 34 32 32
41 36 30 31 28 28 32 35 37 39 36 34 40 39 31 33 22 40 40 38 32 35 36 36 35 34 38
31 34 35 34 31 29 29 30 36 38 34 32 37 37 30 37 43 43 43 35 35 32 23 23 25 29 35
33 34 35 35 34 31 29 27 26 30 30 29 33 35 35 37 39 42 36 31 31 23 29 24 20 20 29
34 34 34 34 34 34 31 28 28 28 27 27 27 28 29 34 38 36 34 36 17 32 23 20 17 13 16
32 33 34 34 34 32 33 31 33 32 28 24 22 24 27 23 22 27 28 26 27 19 15 11 4 4 9
31 34 34 34 34 31 31 30 31 33 32 26 21 21 15 15 19 24 28 21 19 16 15 19 17 4 7
31 33 34 34 34 33 30 29 30 31 28 25 24 23 18 18 23 31 21 20 22 23 24 27 34 21 6
31 33 33 33 33 32 31 29 28 28 23 23 22 22 22 20 27 27 25 25 28 31 31 32 32 43 35
Wind_Direction
304 308 310 313 313 309 309 307 303 301 299 296 293 289 286 285 285 283 281 279 276 274 272 270 269 267 266
305 311 311 312 302 307 314 310 307 301 299 296 295 290 289 288 285 281 277 284 281 278 275 272 269 269 266
300 304 309 304 309 316 312 309 311 308 303 301 299 295 291 289 287 292 291 285 278 274 272 271 270 268 266
303 311 302 312 314 311 311 312 311 305 303 301 301 296 291 293 292 289 285 282 275 271 268 267 262 263 261
304 296 310 313 310 310 306 308 305 310 308 303 300 296 298 298 295 291 287 283 273 266 276 274 271 268 264
314 312 308 307 310 306 308 309 310 310 305 300 300 299 300 297 296 291 286 280 279 279 273 270 267 264 259
310 308 302 313 314 310 305 303 301 302 306 300 302 296 302 302 296 292 287 283 279 278 275 269 264 261 258
307 306 309 308 305 302 302 303 303 304 304 293 301 301 310 307 305 300 288 285 283 282 279 276 265 254 249
310 307 307 307 306 307 307 308 304 303 315 304 306 304 309 310 312 305 291 292 287 284 279 275 270 265 256
313 314 322 326 317 313 313 307 304 304 317 306 308 309 303 306 303 305 307 305 293 290 281 272 264 258 252
327 331 329 328 328 326 323 318 310 303 318 310 307 312 301 299 305 304 311 310 306 306 291 282 270 252 246
332 327 330 333 333 332 330 324 318 314 319 322 307 308 309 303 301 309 317 320 322 315 320 312 293 257 238
328 332 336 335 336 338 335 333 329 330 333 331 319 320 314 300 299 311 322 332 329 332 327 318 299 283 247
333 337 340 340 340 342 340 341 336 339 343 337 332 335 322 318 316 318 334 321 341 345 346 22 37 258 262
338 341 344 344 344 347 346 343 339 337 342 345 350 350 335 333 338 348 346 354 15 11 26 35 47 69 230
341 344 343 343 345 347 349 347 344 347 347 352 360 6 16 27 25 9 15 34 46 48 49 38 45 54 33
343 343 345 347 347 348 350 348 350 348 355 4 10 8 6 357 33 42 43 55 58 58 51 49 44 42 60
Height
1368 1364 1359 1356 1350 1346 1343 1339 1335 1332 1326 1320 1314 1310 1305 1301 1298 1295 1292 1289 1287 1284 1282 1281 1280 1279 1278
1359 1355 1351 1346 1341 1336 1331 1327 1322 1317 1311 1307 1302 1297 1293 1289 1285 1282 1279 1275 1273 1272 1270 1268 1267 1266 1265
1354 1349 1342 1338 1331 1327 1321 1315 1309 1304 1300 1295 1291 1286 1281 1276 1272 1269 1266 1264 1262 1260 1258 1257 1256 1254 1253
1349 1342 1336 1331 1326 1319 1308 1305 1296 1293 1289 1284 1281 1276 1271 1267 1262 1258 1255 1252 1250 1248 1246 1245 1244 1242 1242
1342 1334 1329 1323 1318 1311 1302 1294 1288 1285 1279 1271 1268 1263 1257 1253 1249 1246 1243 1241 1238 1236 1234 1233 1231 1230 1229
1335 1329 1323 1317 1310 1302 1295 1286 1277 1279 1271 1260 1260 1250 1246 1242 1237 1234 1231 1228 1224 1223 1222 1220 1219 1218 1219
1330 1324 1316 1310 1304 1296 1290 1283 1275 1267 1263 1251 1249 1241 1236 1230 1227 1223 1219 1215 1212 1210 1208 1206 1205 1205 1206
1325 1317 1311 1305 1299 1290 1282 1274 1267 1260 1256 1245 1239 1231 1225 1220 1215 1210 1207 1204 1200 1197 1194 1191 1190 1191 1191
1317 1311 1304 1297 1291 1283 1275 1268 1258 1251 1247 1240 1229 1222 1215 1207 1202 1200 1197 1194 1190 1185 1181 1179 1178 1178 1178
1306 1300 1294 1287 1283 1277 1270 1262 1253 1243 1239 1234 1223 1219 1206 1200 1196 1192 1185 1180 1176 1172 1166 1163 1163 1164 1163
1299 1292 1287 1281 1275 1269 1263 1257 1248 1239 1233 1229 1220 1213 1208 1194 1186 1182 1176 1169 1164 1157 1151 1148 1147 1147 1149
1295 1288 1281 1274 1268 1262 1255 1249 1243 1236 1228 1223 1215 1210 1202 1192 1182 1173 1168 1161 1154 1147 1142 1136 1133 1133 1135
1292 1284 1278 1270 1262 1255 1249 1243 1235 1229 1222 1216 1211 1204 1198 1189 1179 1169 1162 1151 1148 1142 1135 1130 1125 1123 1124
1288 1281 1274 1266 1259 1253 1244 1237 1230 1222 1217 1212 1206 1199 1190 1184 1178 1169 1164 1156 1145 1140 1134 1128 1123 1120 1120
1285 1278 1270 1263 1256 1249 1242 1235 1228 1220 1213 1207 1202 1196 1189 1183 1177 1170 1161 1154 1148 1142 1135 1128 1122 1118 1115
1282 1276 1269 1262 1253 1247 1241 1234 1227 1220 1213 1207 1201 1194 1189 1184 1177 1169 1163 1157 1151 1145 1138 1132 1124 1116 1110
1280 1273 1267 1260 1253 1245 1239 1233 1226 1221 1215 1209 1203 1199 1193 1187 1180 1175 1169 1163 1156 1149 1144 1138 1132 1124 1112